When you browse on this site, cookies collect data to enhance your experience and personalize the content and advertising you see.
Visit our Privacy Policy to learn more. By continuing to use the site, you agree to this use of cookies and data.
  • In Deutschland
  • Länderverzeichnis
  • Für 7 Tage
  • Wassertemperatur
  • Wetterkarte
  • Widgets
  • user-avatar
    Anmelden

    Stündliche Wetter A'ali

    Heute, 17 September, Dienstag

    Zeit Temperatur Niederschläge Wind Luftdruck Luftfeuchtigkeit
    00:00 +36°C° 0 mm 3 m/S 752 mmHg 57%
    01:00 +36°C° 0 mm 3 m/S 752 mmHg 58%
    02:00 +35°C° 0 mm 3 m/S 752 mmHg 60%
    03:00 +35°C° 0 mm 2 m/S 752 mmHg 63%
    04:00 +35°C° 0 mm 2 m/S 752 mmHg 64%
    05:00 +34°C° 0 mm 1 m/S 753 mmHg 66%
    06:00 +34°C° 0 mm 1 m/S 753 mmHg 68%
    07:00 +35°C° 0 mm 2 m/S 753 mmHg 64%
    08:00 +36°C° 0 mm 2 m/S 754 mmHg 61%
    09:00 +36°C° 0 mm 2 m/S 754 mmHg 57%
    10:00 +37°C° 0 mm 2 m/S 754 mmHg 54%
    11:00 +37°C° 0 mm 3 m/S 753 mmHg 52%
    12:00 +38°C° 0 mm 3 m/S 753 mmHg 49%
    13:00 +38°C° 0 mm 3 m/S 752 mmHg 49%
    14:00 +38°C° 0 mm 2 m/S 752 mmHg 48%
    15:00 +38°C° 0 mm 2 m/S 751 mmHg 49%
    16:00 +38°C° 0 mm 2 m/S 751 mmHg 50%
    17:00 +37°C° 0 mm 2 m/S 751 mmHg 51%
    18:00 +37°C° 0 mm 3 m/S 751 mmHg 52%
    19:00 +36°C° 0 mm 2 m/S 752 mmHg 55%
    20:00 +35°C° 0 mm 1 m/S 752 mmHg 58%
    21:00 +33°C° 0 mm 0 m/S 752 mmHg 61%
    22:00 +35°C° 0 mm 1 m/S 752 mmHg 60%
    23:00 +35°C° 0 mm 1 m/S 752 mmHg 58%

    Morgen, 18 September, Mittwoch

    Zeit Temperatur Niederschläge Wind Luftdruck Luftfeuchtigkeit
    00:00 +35°C° 0 mm 1 m/S 752 mmHg 57%
    01:00 +35°C° 0 mm 1 m/S 751 mmHg 59%
    02:00 +34°C° 0 mm 1 m/S 751 mmHg 62%
    03:00 +32°C° 0 mm 0 m/S 751 mmHg 64%
    04:00 +34°C° 0 mm 1 m/S 751 mmHg 60%
    05:00 +35°C° 0 mm 2 m/S 752 mmHg 55%
    06:00 +36°C° 0 mm 4 m/S 752 mmHg 51%
    07:00 +36°C° 0 mm 4 m/S 753 mmHg 50%
    08:00 +36°C° 0 mm 4 m/S 753 mmHg 49%
    09:00 +36°C° 0 mm 4 m/S 753 mmHg 48%
    10:00 +37°C° 0 mm 3 m/S 753 mmHg 47%
    11:00 +37°C° 0 mm 3 m/S 753 mmHg 46%
    12:00 +38°C° 0 mm 2 m/S 753 mmHg 45%
    13:00 +38°C° 0 mm 3 m/S 752 mmHg 45%
    14:00 +38°C° 0 mm 3 m/S 752 mmHg 46%
    15:00 +38°C° 0 mm 3 m/S 751 mmHg 47%
    16:00 +37°C° 0 mm 3 m/S 752 mmHg 50%
    17:00 +37°C° 0 mm 3 m/S 752 mmHg 53%
    18:00 +36°C° 0 mm 3 m/S 752 mmHg 56%
    19:00 +36°C° 0 mm 3 m/S 752 mmHg 59%
    20:00 +36°C° 0 mm 3 m/S 752 mmHg 61%
    21:00 +35°C° 0 mm 2 m/S 753 mmHg 63%
    22:00 +35°C° 0 mm 2 m/S 753 mmHg 64%
    23:00 +34°C° 0 mm 1 m/S 752 mmHg 66%

    übermorgen, 19 September, Donnerstag

    Zeit Temperatur Niederschläge Wind Luftdruck Luftfeuchtigkeit
    00:00 +34°C° 0 mm 1 m/S 752 mmHg 67%
    01:00 +33°C° 0 mm 1 m/S 752 mmHg 66%
    02:00 +33°C° 0 mm 1 m/S 752 mmHg 66%
    03:00 +33°C° 0 mm 1 m/S 752 mmHg 66%
    04:00 +33°C° 0 mm 1 m/S 752 mmHg 65%
    05:00 +33°C° 0 mm 1 m/S 753 mmHg 64%
    06:00 +34°C° 0 mm 1 m/S 753 mmHg 63%
    07:00 +34°C° 0 mm 1 m/S 754 mmHg 62%
    08:00 +35°C° 0 mm 1 m/S 754 mmHg 60%
    09:00 +35°C° 0 mm 1 m/S 754 mmHg 58%
    10:00 +35°C° 0 mm 1 m/S 754 mmHg 55%
    11:00 +35°C° 0 mm 1 m/S 754 mmHg 51%
    12:00 +36°C° 0 mm 1 m/S 754 mmHg 48%
    13:00 +37°C° 0 mm 2 m/S 753 mmHg 49%
    14:00 +37°C° 0 mm 2 m/S 753 mmHg 51%
    15:00 +37°C° 0 mm 2 m/S 752 mmHg 52%
    16:00 +37°C° 0 mm 3 m/S 753 mmHg 55%
    17:00 +36°C° 0 mm 3 m/S 753 mmHg 58%
    18:00 +36°C° 0 mm 3 m/S 753 mmHg 60%
    19:00 +35°C° 0 mm 3 m/S 753 mmHg 62%
    20:00 +35°C° 0 mm 2 m/S 753 mmHg 63%
    21:00 +35°C° 0 mm 2 m/S 753 mmHg 65%
    22:00 +34°C° 0 mm 1 m/S 753 mmHg 66%
    23:00 +34°C° 0 mm 1 m/S 753 mmHg 68%

    20 September, Freitag

    Zeit Temperatur Niederschläge Wind Luftdruck Luftfeuchtigkeit
    00:00 +31°C° 0 mm 0 m/S 753 mmHg 69%
    01:00 +34°C° 0 mm 2 m/S 753 mmHg 67%
    02:00 +34°C° 0 mm 3 m/S 752 mmHg 65%
    03:00 +34°C° 0 mm 4 m/S 752 mmHg 62%
    04:00 +34°C° 0 mm 4 m/S 752 mmHg 62%
    05:00 +34°C° 0 mm 4 m/S 753 mmHg 61%
    06:00 +34°C° 0 mm 4 m/S 753 mmHg 60%
    07:00 +35°C° 0 mm 3 m/S 753 mmHg 58%
    08:00 +35°C° 0 mm 3 m/S 754 mmHg 56%
    09:00 +36°C° 0 mm 2 m/S 754 mmHg 55%
    10:00 +36°C° 0 mm 2 m/S 754 mmHg 53%
    11:00 +37°C° 0 mm 2 m/S 753 mmHg 52%
    12:00 +37°C° 0 mm 2 m/S 753 mmHg 50%
    13:00 +37°C° 0 mm 2 m/S 752 mmHg 51%
    14:00 +37°C° 0 mm 3 m/S 752 mmHg 52%
    15:00 +37°C° 0 mm 3 m/S 751 mmHg 52%
    16:00 +37°C° 0 mm 4 m/S 752 mmHg 54%
    17:00 +36°C° 0 mm 4 m/S 752 mmHg 57%
    18:00 +36°C° 0 mm 4 m/S 752 mmHg 59%
    19:00 +35°C° 0 mm 4 m/S 752 mmHg 59%
    20:00 +35°C° 0 mm 4 m/S 752 mmHg 60%
    21:00 +35°C° 0 mm 4 m/S 752 mmHg 60%
    22:00 +35°C° 0 mm 4 m/S 752 mmHg 61%
    23:00 +35°C° 0 mm 4 m/S 751 mmHg 62%

    21 September, Samstag

    Zeit Temperatur Niederschläge Wind Luftdruck Luftfeuchtigkeit
    00:00 +35°C° 0 mm 4 m/S 751 mmHg 63%
    01:00 +35°C° 0 mm 4 m/S 751 mmHg 63%
    02:00 +35°C° 0 mm 4 m/S 751 mmHg 63%
    03:00 +35°C° 0 mm 3 m/S 751 mmHg 63%
    04:00 +35°C° 0 mm 3 m/S 751 mmHg 60%
    05:00 +34°C° 0 mm 2 m/S 751 mmHg 58%
    06:00 +34°C° 0 mm 2 m/S 752 mmHg 55%
    07:00 +35°C° 0 mm 2 m/S 752 mmHg 52%
    08:00 +35°C° 0 mm 3 m/S 752 mmHg 49%
    09:00 +36°C° 0 mm 3 m/S 752 mmHg 46%
    10:00 +36°C° 0 mm 3 m/S 752 mmHg 46%
    11:00 +37°C° 0 mm 3 m/S 751 mmHg 45%
    12:00 +37°C° 0 mm 3 m/S 751 mmHg 45%
    13:00 +38°C° 0 mm 3 m/S 750 mmHg 44%
    14:00 +38°C° 0 mm 3 m/S 750 mmHg 43%
    15:00 +39°C° 0 mm 3 m/S 749 mmHg 42%
    16:00 +38°C° 0 mm 4 m/S 749 mmHg 44%
    17:00 +39°C° 0 mm 5 m/S 749 mmHg 46%
    18:00 +37°C° 0 mm 5 m/S 749 mmHg 48%
    19:00 +37°C° 0 mm 5 m/S 750 mmHg 53%
    20:00 +36°C° 0 mm 5 m/S 750 mmHg 59%
    21:00 +35°C° 0 mm 5 m/S 750 mmHg 64%
    22:00 +35°C° 0 mm 4 m/S 750 mmHg 64%
    23:00 +35°C° 0 mm 4 m/S 750 mmHg 65%

    22 September, Sonntag

    Zeit Temperatur Niederschläge Wind Luftdruck Luftfeuchtigkeit
    00:00 +35°C° 0 mm 3 m/S 750 mmHg 65%
    01:00 +35°C° 0 mm 3 m/S 750 mmHg 65%
    02:00 +35°C° 0 mm 3 m/S 750 mmHg 65%
    03:00 +34°C° 0 mm 2 m/S 750 mmHg 65%
    04:00 +34°C° 0 mm 3 m/S 751 mmHg 63%
    05:00 +34°C° 0 mm 3 m/S 751 mmHg 62%
    06:00 +34°C° 0 mm 4 m/S 751 mmHg 61%
    07:00 +35°C° 0 mm 5 m/S 752 mmHg 57%
    08:00 +35°C° 0 mm 5 m/S 752 mmHg 54%
    09:00 +36°C° 0 mm 6 m/S 753 mmHg 51%
    10:00 +36°C° 0 mm 5 m/S 753 mmHg 50%
    11:00 +37°C° 0 mm 4 m/S 752 mmHg 48%
    12:00 +37°C° 0 mm 3 m/S 752 mmHg 47%
    13:00 +37°C° 0 mm 4 m/S 752 mmHg 50%
    14:00 +37°C° 0 mm 4 m/S 751 mmHg 53%
    15:00 +37°C° 0 mm 5 m/S 751 mmHg 57%
    16:00 +37°C° 0 mm 5 m/S 751 mmHg 60%
    17:00 +36°C° 0 mm 6 m/S 751 mmHg 64%
    18:00 +35°C° 0 mm 7 m/S 751 mmHg 68%
    19:00 +35°C° 0 mm 6 m/S 751 mmHg 70%
    20:00 +35°C° 0 mm 6 m/S 752 mmHg 72%
    21:00 +34°C° 0 mm 5 m/S 752 mmHg 74%
    22:00 +34°C° 0 mm 4 m/S 752 mmHg 72%
    23:00 +34°C° 0 mm 3 m/S 752 mmHg 71%
    Mehr zeigen